Theta_e
322 315 327 320 302 300 296 303 305 306 306 312 316 315 314 316 310 304 330 337 340 342 343 345 348 350 350 349 347 346 346 347 346 345 343 343 341 342 343 342 343 341 337 338 340 341 341 339 338
317 317 314 307 298 293 296 304 305 307 310 312 314 317 315 314 323 327 330 339 342 342 343 344 345 350 350 348 347 347 347 347 346 343 343 342 341 339 340 341 342 340 336 337 338 338 337 336 334
311 312 303 301 296 292 297 304 307 309 310 310 311 317 317 319 324 328 336 341 342 341 342 343 345 349 349 348 347 348 347 346 346 344 343 341 340 338 338 340 340 339 336 338 336 337 336 334 333
306 305 301 294 293 297 302 308 312 311 309 311 315 313 320 327 327 333 340 341 339 340 341 341 346 349 348 347 347 348 346 346 346 345 342 340 338 337 339 339 340 337 336 335 336 336 336 333 332
305 302 295 292 293 297 303 310 311 310 310 308 312 311 316 327 335 338 339 339 337 338 340 342 344 346 347 347 347 347 346 345 345 344 341 339 337 338 338 338 338 336 335 334 334 334 333 331 329
299 301 293 291 295 301 304 312 310 309 311 309 313 314 316 328 335 337 339 337 339 337 340 342 338 340 343 345 346 346 346 345 344 343 341 340 338 339 338 338 336 334 335 335 334 333 331 330 328
297 297 294 294 297 301 304 305 302 304 308 308 317 313 316 324 331 336 336 338 338 337 339 340 341 338 336 340 341 342 343 342 342 341 340 338 338 339 338 337 337 336 334 334 333 331 330 328 326
300 297 294 296 298 298 299 300 303 307 307 312 318 313 314 323 333 336 337 336 335 335 338 339 338 339 339 338 334 336 338 338 339 338 335 332 332 334 334 333 336 337 335 333 332 330 328 327 326
304 293 292 296 298 299 299 297 302 304 312 316 320 317 322 328 335 334 335 334 334 335 336 337 337 337 337 336 333 332 332 333 333 332 328 325 325 327 328 329 333 336 335 333 330 329 330 330 328
298 292 296 301 300 296 298 297 297 303 307 314 319 324 328 329 330 330 331 330 330 330 334 336 336 336 336 338 333 333 334 333 333 330 327 326 323 323 326 325 328 331 331 333 333 332 331 326 321
302 294 301 301 297 297 297 296 298 299 299 303 316 321 324 324 326 327 328 328 327 329 333 335 336 336 335 334 333 332 332 331 331 329 327 325 324 321 321 321 323 322 321 323 328 326 322 321 319
299 302 303 304 300 298 296 298 296 297 298 301 322 324 324 323 323 325 326 325 325 325 331 334 336 336 335 334 334 333 332 331 330 329 327 324 321 320 320 319 320 319 319 318 318 318 319 319 320
300 303 304 305 304 300 298 296 295 295 299 306 316 324 323 322 323 324 326 326 325 325 330 332 334 335 335 334 334 334 333 332 331 330 328 326 323 320 320 319 319 319 319 318 317 318 319 319 320
303 302 302 304 302 303 297 295 297 297 299 305 322 322 322 323 323 324 324 325 325 326 329 331 332 335 335 335 334 334 333 332 331 329 330 328 325 322 321 320 319 319 319 319 318 318 318 317 317
304 298 301 300 300 300 300 296 294 298 298 298 301 316 321 323 324 325 326 325 326 327 329 330 331 335 335 335 335 335 334 333 330 329 328 328 325 323 322 320 319 320 320 319 319 318 318 317 318
295 296 290 297 297 298 301 293 299 298 295 297 297 296 310 320 324 326 327 328 327 327 328 329 332 332 333 334 334 333 334 333 332 331 328 329 327 325 322 321 320 320 320 319 318 318 318 318 317
290 286 286 290 299 298 297 294 301 303 297 296 296 297 298 299 311 322 327 328 328 329 329 329 329 328 329 333 333 332 332 332 331 331 331 330 329 328 324 324 325 325 324 323 322 322 321 320 320
283 284 288 288 293 297 294 293 297 296 296 296 294 295 296 297 299 304 324 328 329 330 331 330 330 329 328 329 333 332 331 331 331 330 331 331 331 330 328 328 327 326 324 324 323 321 322 321 321
288 287 286 288 290 288 290 292 294 297 292 291 290 292 294 295 297 302 313 324 327 328 330 330 328 329 329 327 328 330 329 330 330 330 331 331 331 331 329 328 328 327 325 325 324 322 321 321 319
286 284 283 288 290 288 285 287 291 293 292 293 293 293 293 293 294 296 304 310 320 323 327 329 329 328 330 330 330 330 331 331 332 331 331 331 331 331 330 329 328 327 325 325 324 323 320 320 316
286 284 283 284 287 285 283 282 286 290 291 292 294 294 295 294 294 293 295 296 300 303 303 326 329 329 329 330 328 329 331 330 330 330 330 331 331 331 330 327 327 327 326 325 324 323 321 318 315
283 288 287 286 282 276 281 274 281 285 288 290 291 293 294 293 294 296 296 296 297 300 303 301 327 329 330 330 329 327 326 326 327 327 331 330 331 331 330 327 327 328 327 326 325 325 323 320 317
286 289 287 286 281 279 277 275 279 283 284 286 289 290 293 294 293 293 293 295 295 297 300 303 307 315 318 329 329 327 325 328 328 329 329 329 330 331 330 329 328 328 327 327 326 324 322 322 320
291 287 285 284 280 272 277 276 276 280 284 286 289 291 292 292 292 291 292 293 292 294 296 298 300 300 305 314 327 327 327 326 326 327 326 327 328 326 328 329 329 329 327 326 327 326 324 323 323
288 281 272 271 268 269 278 275 279 283 285 286 290 290 290 290 289 288 288 288 290 290 292 295 294 295 298 303 304 308 317 318 321 321 324 320 317 317 316 319 319 320 321 322 324 322 317 317 317
285 282 274 268 269 273 279 274 278 287 290 290 290 289 289 287 287 287 286 287 287 287 288 289 290 289 293 296 298 300 304 306 306 306 308 308 307 307 308 307 309 309 310 311 311 309 308 308 307
285 280 284 277 270 272 277 278 284 288 289 288 287 287 286 286 286 285 285 285 285 285 286 286 287 287 288 292 294 294 296 301 302 303 303 302 303 300 299 300 302 303 303 304 304 303 302 302 301
287 288 278 277 266 266 275 276 277 282 286 288 286 284 285 285 284 283 283 283 283 283 284 284 285 284 286 289 290 291 292 294 295 297 297 298 299 300 299 297 297 297 297 299 299 297 297 296 294
285 281 283 281 277 271 270 274 284 286 287 288 286 286 284 283 282 281 281 281 281 282 282 283 283 283 284 286 287 288 289 291 292 291 291 291 291 293 292 292 293 293 292 293 292 291 291 289 289
287 285 283 276 271 275 277 275 287 287 287 287 285 284 283 283 281 280 280 280 280 280 281 281 282 282 283 284 285 286 287 288 288 288 288 289 288 288 287 287 287 288 288 288 287 285 285 284 284
Wind_Speed
6 2 2 4 4 4 3 5 4 9 4 6 4 7 9 3 4 5 5 9 16 16 15 15 17 19 19 18 18 16 15 16 18 17 16 16 15 14 15 16 15 16 15 15 14 15 15 14 13
4 4 4 2 4 2 5 4 7 9 6 8 6 5 6 2 3 8 6 10 18 15 14 14 15 19 19 18 17 16 15 16 18 18 17 16 15 14 14 14 14 15 14 15 15 14 13 12 11
6 2 4 4 3 4 4 3 6 6 4 4 6 5 3 4 5 9 10 15 16 13 11 12 15 18 19 18 16 14 13 17 18 18 17 16 15 14 13 11 12 13 15 13 14 14 12 11 11
3 4 4 3 5 5 4 4 8 5 5 6 6 8 3 3 9 8 16 17 16 12 10 12 14 18 18 17 16 14 14 17 17 17 16 15 14 14 11 11 15 12 14 13 12 11 11 9 9
3 3 2 2 5 4 2 7 2 9 3 4 4 4 3 4 11 18 16 15 17 12 10 11 12 16 16 16 15 14 15 16 16 15 15 15 14 13 11 10 12 13 13 12 11 10 9 8 7
3 3 2 5 5 2 4 7 4 6 6 4 7 6 2 4 16 13 14 14 14 14 12 10 10 11 13 15 15 15 16 16 16 16 16 15 15 13 13 9 10 11 14 11 10 9 8 7 6
0 2 5 5 2 2 2 1 4 7 5 3 10 6 2 4 8 12 11 12 12 13 11 8 9 10 11 11 12 14 15 14 15 15 15 15 15 14 14 12 13 11 11 10 8 7 6 5 4
2 2 4 4 4 3 2 4 1 3 2 3 4 8 6 5 11 12 12 11 12 11 11 9 7 7 7 8 11 11 11 11 12 11 11 9 11 11 11 10 12 13 11 9 8 6 5 4 2
1 1 4 4 7 4 3 3 5 5 5 4 6 5 9 16 15 13 12 10 10 10 11 9 8 7 7 6 7 10 10 10 10 8 7 10 5 6 7 7 10 14 12 10 8 6 5 3 3
4 4 6 1 3 4 4 1 5 5 5 6 5 8 17 17 15 15 14 12 10 11 11 11 8 8 7 6 6 5 6 4 4 5 6 2 5 5 6 6 9 9 11 11 10 9 7 4 1
3 5 4 2 2 1 2 1 4 2 6 1 6 12 9 14 10 11 10 12 11 11 9 10 10 8 8 5 4 2 3 3 3 6 5 5 3 3 3 3 2 3 6 3 5 4 2 4 2
5 7 3 3 5 2 2 1 2 3 4 3 7 11 10 11 11 11 12 11 11 10 12 11 11 10 8 6 5 5 4 3 3 4 6 4 3 3 3 3 4 3 2 3 3 2 3 4 4
11 6 6 4 7 7 2 2 2 2 5 5 9 8 9 8 8 5 8 8 11 12 12 12 11 10 10 9 6 6 5 5 4 4 5 4 4 4 4 4 3 3 3 3 3 3 3 4 5
5 10 13 10 5 4 4 3 4 3 3 8 8 8 7 9 8 7 7 10 10 12 12 13 14 12 10 9 10 7 6 6 5 4 5 6 4 4 4 4 4 4 4 4 4 4 4 4 3
7 4 6 7 5 5 7 4 7 6 2 2 5 5 7 10 9 11 12 8 8 8 10 12 13 14 13 11 10 8 7 7 6 6 7 7 6 6 6 4 4 4 4 5 3 3 3 3 3
8 2 3 8 6 4 5 5 7 5 4 7 6 4 7 9 11 12 12 11 9 8 9 9 8 10 13 10 8 7 7 7 7 7 7 10 8 8 6 4 4 5 4 4 3 4 4 4 4
3 6 7 5 3 8 6 3 8 5 6 6 6 8 7 7 8 9 10 13 14 13 13 12 8 9 7 9 8 7 7 7 7 7 7 10 9 9 7 5 5 6 4 4 4 4 3 2 3
8 6 8 5 8 14 15 6 3 3 7 9 6 6 7 6 8 7 13 14 13 14 14 13 11 9 7 4 6 4 4 5 5 6 7 10 8 9 7 6 6 4 3 3 2 4 2 2 3
7 5 6 4 3 4 10 10 8 5 4 5 4 6 7 8 4 1 5 11 12 12 13 13 12 11 8 4 5 5 6 3 4 4 7 9 8 8 7 5 5 4 4 5 5 3 4 3 1
4 7 6 2 4 5 2 4 4 5 5 7 8 8 8 5 3 2 8 8 6 5 8 11 13 12 11 7 5 3 4 3 5 5 6 7 7 8 7 7 5 6 4 5 5 4 3 3 3
5 5 4 3 2 2 3 4 4 6 4 4 5 7 7 8 6 5 8 8 8 8 6 6 12 12 10 10 4 3 3 2 5 6 7 7 9 9 9 8 7 7 6 6 6 6 6 4 3
4 6 5 5 2 3 2 5 4 6 9 6 9 8 6 6 6 6 6 8 8 8 7 7 6 10 10 13 11 11 10 9 6 5 6 6 9 10 10 8 8 8 6 6 7 6 5 4 4
4 5 4 3 3 3 1 4 8 2 6 8 7 6 6 6 6 7 7 7 8 9 8 8 8 7 3 8 8 9 10 9 4 6 7 7 6 9 9 10 9 9 7 7 7 5 6 5 3
6 6 6 4 3 2 6 6 6 4 7 1 2 6 6 7 7 7 7 8 8 8 9 9 8 7 9 6 6 10 11 10 7 7 5 4 3 2 4 8 8 8 8 7 7 6 6 5 4
5 5 3 3 2 6 3 3 9 6 5 3 6 6 7 6 7 7 9 9 9 11 10 7 8 8 8 8 8 8 1 2 2 1 2 4 2 2 2 3 3 2 3 3 4 4 5 3 3
5 7 6 8 4 4 3 6 7 3 6 10 12 8 7 8 7 9 8 8 9 10 9 8 8 8 9 9 9 8 8 5 5 7 5 5 5 5 6 5 8 7 7 6 6 6 6 6 5
4 3 5 5 2 3 3 4 1 3 7 8 8 7 6 6 7 7 7 7 7 8 8 8 8 7 8 9 8 9 8 7 7 7 8 6 6 8 9 9 10 10 9 8 8 7 8 7 6
6 6 2 3 3 2 3 2 3 1 3 4 5 6 5 5 6 6 6 7 7 7 6 8 7 7 7 9 8 8 9 7 9 8 9 9 7 8 10 11 7 9 9 9 9 9 6 8 6
3 3 3 3 4 4 2 3 3 5 6 8 6 5 5 5 5 5 5 5 5 6 7 7 7 7 8 8 8 9 9 8 10 10 9 9 10 8 9 10 8 6 9 11 9 10 8 10 9
1 1 5 4 4 2 2 4 5 5 7 7 6 6 5 5 5 5 5 5 6 6 6 6 6 7 6 6 7 9 9 10 11 11 11 10 10 10 9 12 9 7 11 9 9 9 8 9 9
Wind_Direction
329 332 117 47 71 69 268 279 315 302 289 182 129 123 136 65 153 203 130 128 132 144 149 150 152 149 146 142 142 145 145 137 124 118 112 107 102 101 103 106 101 97 98 100 96 90 84 86 89
321 115 47 97 98 112 258 204 209 261 238 124 102 117 47 105 115 119 108 149 140 143 148 150 148 150 145 143 144 147 148 138 133 126 119 114 111 111 113 111 109 103 106 111 104 98 96 89 85
329 47 93 125 130 182 226 317 287 317 261 140 93 70 107 134 95 143 137 141 134 138 145 145 144 146 144 145 146 147 146 144 134 127 122 118 117 116 119 116 109 104 106 102 116 108 101 92 82
340 19 29 118 208 249 255 21 283 314 246 54 110 67 31 271 151 144 137 138 130 133 136 141 144 144 146 147 145 140 137 138 131 127 125 123 122 122 122 126 118 124 109 110 107 104 100 91 81
17 71 135 202 239 244 277 243 218 283 276 113 121 131 49 19 113 131 137 142 135 130 131 142 144 147 148 148 147 144 141 135 131 129 128 129 130 130 131 134 134 127 117 114 112 110 105 94 75
343 95 136 205 237 293 248 241 159 247 256 154 82 101 145 98 129 139 138 141 133 133 139 144 142 144 145 144 142 140 141 142 136 136 137 140 142 143 137 130 135 137 126 122 120 118 111 97 78
102 123 218 190 186 206 160 207 255 241 197 156 140 89 103 125 134 135 130 127 128 133 135 139 142 144 140 140 140 145 147 147 145 147 149 155 157 157 149 153 139 140 124 134 135 130 122 111 93
156 138 245 197 178 203 299 285 5 276 103 103 128 151 177 174 136 124 127 126 128 135 136 144 135 141 142 149 144 145 147 151 153 156 153 139 129 152 156 153 147 144 144 147 149 150 151 147 169
335 300 235 195 152 205 2 326 333 280 74 53 344 155 159 129 134 131 134 137 135 145 147 147 146 140 136 138 154 149 153 155 152 147 151 138 139 131 131 157 157 152 148 158 166 173 176 192 245
194 190 216 243 169 188 125 18 302 30 41 24 29 61 125 132 143 146 152 152 146 154 156 153 152 148 144 153 149 147 153 157 153 151 159 145 147 152 146 158 167 167 159 169 177 181 199 209 259
322 201 235 109 99 281 160 350 326 125 35 15 171 141 143 139 148 149 154 157 161 163 152 163 154 154 153 147 149 141 143 153 162 164 169 171 155 155 145 152 164 163 158 169 188 200 199 224 227
260 239 356 3 358 331 239 95 63 43 177 267 180 161 152 154 155 162 160 160 154 159 160 165 164 161 165 146 165 161 163 166 170 185 175 162 160 166 171 173 181 176 177 195 207 222 247 264 262
258 272 310 344 318 291 196 174 229 253 285 345 164 159 151 149 136 146 168 163 159 173 166 171 165 171 171 164 169 170 178 177 179 177 187 165 168 181 171 190 180 196 184 200 215 224 239 253 259
208 249 274 302 273 259 209 219 157 280 134 64 122 163 176 167 162 140 167 177 168 178 173 174 172 172 171 176 176 177 178 185 178 177 191 186 177 175 176 178 194 204 201 207 207 216 228 236 244
197 175 302 303 239 237 164 212 211 226 254 324 162 195 196 193 171 183 179 179 177 172 170 180 179 174 178 178 170 175 184 185 184 187 190 188 178 178 176 180 194 212 205 215 207 223 221 227 227
170 177 178 264 224 248 160 241 231 198 178 250 258 220 211 216 202 194 192 189 183 165 173 165 174 180 181 178 177 176 182 181 189 191 188 187 183 179 181 186 193 200 196 190 193 197 220 226 226
202 206 200 158 207 283 200 234 242 210 151 238 241 252 223 228 221 214 205 193 187 189 175 175 169 172 177 180 179 175 179 185 183 185 187 187 187 188 180 188 202 190 191 188 198 215 202 242 267
183 193 198 219 178 187 264 240 216 209 170 219 247 245 244 235 233 225 197 202 193 190 186 183 174 177 164 168 177 176 182 180 184 179 187 188 193 190 186 193 192 192 176 200 198 219 208 233 250
157 170 184 229 214 197 224 208 229 193 225 183 218 226 241 232 251 95 185 191 194 184 187 185 181 177 168 171 177 185 199 189 194 196 191 193 194 193 193 199 188 180 183 197 193 192 207 239 56
157 159 197 80 300 193 199 233 235 244 208 203 207 230 225 248 203 153 56 56 83 154 178 182 188 181 186 188 184 167 179 193 198 195 199 193 185 188 198 194 191 184 193 206 183 171 188 208 179
196 174 176 141 238 5 88 307 242 254 224 220 245 218 219 214 189 69 64 49 45 47 28 206 192 183 189 188 164 127 147 185 204 214 212 200 191 195 202 197 185 188 191 203 194 190 188 204 219
160 191 141 140 79 192 66 259 268 247 248 219 227 209 217 97 63 58 52 50 36 15 2 3 204 198 199 183 186 197 203 214 216 205 213 205 198 205 211 203 196 204 192 192 197 196 200 168 211
164 101 141 140 117 55 343 86 278 292 263 247 237 164 116 96 87 65 50 52 36 22 8 12 23 32 30 200 208 205 206 208 199 201 191 203 199 212 209 202 204 205 201 194 194 188 194 200 191
134 78 46 60 87 332 212 138 271 229 224 199 62 97 89 82 70 57 38 42 40 35 21 18 21 20 8 4 226 213 219 219 201 196 192 187 179 167 216 198 196 199 198 195 199 196 195 202 194
111 98 33 12 7 218 139 139 251 249 273 247 143 93 70 63 59 42 36 27 21 33 25 22 24 17 11 27 32 13 39 97 107 38 184 105 101 60 64 94 92 105 130 130 150 135 101 76 101
166 163 155 186 190 220 106 214 252 344 40 94 95 89 75 55 52 51 39 35 28 32 28 24 24 24 17 29 33 38 16 69 71 65 53 76 91 57 29 39 82 67 53 68 69 78 81 80 77
206 162 160 103 39 68 231 293 317 78 68 74 93 88 76 69 56 52 47 46 34 34 33 30 32 25 23 35 36 41 48 35 68 63 72 71 60 72 42 40 35 34 44 71 80 79 73 65 73
155 157 80 1 120 218 275 267 239 268 214 138 121 109 105 90 69 54 39 31 32 31 24 30 41 37 27 41 42 48 50 33 63 63 56 59 65 73 84 69 46 46 57 42 72 69 71 98 61
127 161 70 134 145 166 147 263 341 319 256 175 146 133 115 102 95 79 60 44 36 32 31 28 33 35 37 42 43 52 51 59 55 64 62 64 51 47 66 72 71 44 66 61 68 73 64 75 68
50 114 153 138 260 251 97 282 352 34 38 86 96 106 106 107 105 97 83 62 42 30 33 45 50 47 40 45 50 58 59 57 65 65 59 59 64 49 61 62 56 55 63 55 68 72 64 71 67